Location: Owatonna
(44.0840°N, 93.2260°W)
Time: 15:57:30
(UTC-05:00)

X-37B - Visible Passes

Search period start: 26 June 2022 00:00
Search period end: 06 July 2022 00:00
Orbit: 326 x 345 km, 45.0° (Epoch: 25 June)

Date Brightness Start Highest point End Pass type
(mag) Time Alt. Az. Time Alt. Az. Time Alt. Az.
26 Jun 3.3 02:24:03 10° E 02:24:03 10° E 02:24:05 10° E visible
26 Jun 0.8 03:55:23 24° WSW 03:56:38 37° SSW 03:59:19 10° SE visible
27 Jun 2.0 04:17:16 17° SSW 04:17:16 17° SSW 04:18:53 10° SSE visible
27 Jun 1.4 22:13:27 10° SSW 22:15:47 24° SSE 22:16:59 18° ESE visible
27 Jun 3.2 23:48:14 10° WSW 23:48:20 11° WSW 23:48:20 11° WSW visible
28 Jun 0.3 22:33:19 10° WSW 22:36:02 51° SSE 22:37:54 18° E visible
29 Jun 3.0 00:08:41 10° W 00:09:11 14° W 00:09:11 14° W visible
29 Jun 0.1 22:53:36 10° WSW 22:56:25 90° E 22:57:57 24° ENE visible
30 Jun 3.4 00:29:09 10° W 00:29:11 10° W 00:29:11 10° W visible
30 Jun 0.4 21:38:40 10° WSW 21:41:23 50° SSE 21:44:07 10° E visible
30 Jun 0.4 23:14:03 10° W 23:16:51 70° N 23:17:33 44° ENE visible
01 Jul 0.2 21:58:57 10° WSW 22:01:45 89° SE 22:04:33 10° E visible
01 Jul 0.7 23:34:29 10° W 23:36:55 61° NW 23:36:55 61° NW visible
02 Jul 0.5 22:19:23 10° W 22:22:10 70° N 22:24:58 10° E visible
02 Jul 2.2 23:54:53 10° W 23:56:10 24° W 23:56:10 24° W visible
03 Jul 0.4 22:39:48 10° W 22:42:36 74° N 22:44:08 23° E visible
04 Jul 0.1 23:00:12 10° W 23:02:59 76° SSW 23:03:17 65° SE visible
05 Jul 0.4 21:45:06 10° W 21:47:53 74° N 21:50:41 10° E visible
05 Jul 1.7 23:20:39 10° W 23:22:24 29° WSW 23:22:24 29° WSW visible
